When you browse on this site, cookies collect data to enhance your experience and personalize the content and advertising you see.
Visit our Privacy Policy to learn more. By continuing to use the site, you agree to this use of cookies and data.
  • In Deutschland
  • Länderverzeichnis
  • Für 7 Tage
  • Wassertemperatur
  • Wetterkarte
  • Widgets
  • user-avatar
    Anmelden

    Stündliche Wetter Mostovaya

    Heute, 25 Februar, Dienstag

    Zeit Temperatur Niederschläge Wind Luftdruck Luftfeuchtigkeit
    00:00 -10°C° 0 mm 6 m/S 747 mmHg 90%
    01:00 -10°C° 0 mm 5 m/S 747 mmHg 90%
    02:00 -11°C° 0 mm 5 m/S 747 mmHg 91%
    03:00 -11°C° 0 mm 4 m/S 748 mmHg 92%
    04:00 -12°C° 0 mm 3 m/S 748 mmHg 93%
    05:00 -12°C° 0 mm 3 m/S 748 mmHg 94%
    06:00 -13°C° 0 mm 3 m/S 749 mmHg 94%
    07:00 -14°C° 0 mm 3 m/S 749 mmHg 94%
    08:00 -12°C° 0 mm 3 m/S 749 mmHg 94%
    09:00 -9°C° 0 mm 3 m/S 749 mmHg 93%
    10:00 -8°C° 0 mm 3 m/S 750 mmHg 92%
    11:00 -7°C° 0 mm 3 m/S 750 mmHg 92%
    12:00 -6°C° 0 mm 3 m/S 750 mmHg 92%
    13:00 -5°C° 0 mm 3 m/S 750 mmHg 92%
    14:00 -6°C° 0 mm 3 m/S 749 mmHg 93%
    15:00 -7°C° 0 mm 3 m/S 749 mmHg 93%
    16:00 -7°C° 0 mm 3 m/S 749 mmHg 94%
    17:00 -8°C° 0 mm 3 m/S 749 mmHg 94%
    18:00 -10°C° 0 mm 4 m/S 749 mmHg 95%
    19:00 -12°C° 0 mm 4 m/S 749 mmHg 95%
    20:00 -12°C° 0 mm 4 m/S 749 mmHg 95%
    21:00 -12°C° 0 mm 4 m/S 749 mmHg 95%
    22:00 -14°C° 0 mm 4 m/S 748 mmHg 95%
    23:00 -14°C° 0 mm 4 m/S 748 mmHg 95%

    Morgen, 26 Februar, Mittwoch

    Zeit Temperatur Niederschläge Wind Luftdruck Luftfeuchtigkeit
    00:00 -14°C° 0 mm 4 m/S 747 mmHg 95%
    01:00 -12°C° 0 mm 4 m/S 747 mmHg 95%
    02:00 -12°C° 0 mm 4 m/S 746 mmHg 95%
    03:00 -12°C° 0 mm 4 m/S 745 mmHg 95%
    04:00 -12°C° 0 mm 4 m/S 745 mmHg 95%
    05:00 -11°C° 0 mm 4 m/S 744 mmHg 95%
    06:00 -11°C° 0 mm 4 m/S 743 mmHg 94%
    07:00 -10°C° 0 mm 4 m/S 742 mmHg 94%
    08:00 -9°C° 0 mm 4 m/S 741 mmHg 94%
    09:00 -8°C° 0 mm 5 m/S 740 mmHg 94%
    10:00 -7°C° 0 mm 5 m/S 739 mmHg 94%
    11:00 -7°C° 0.4 mm 5 m/S 738 mmHg 95%
    12:00 -6°C° 0.4 mm 5 m/S 737 mmHg 95%
    13:00 -5°C° 0.4 mm 6 m/S 736 mmHg 96%
    14:00 -5°C° 1.1 mm 5 m/S 736 mmHg 96%
    15:00 -5°C° 1.1 mm 5 m/S 735 mmHg 96%
    16:00 -4°C° 1.1 mm 4 m/S 734 mmHg 96%
    17:00 -5°C° 0.8 mm 4 m/S 734 mmHg 96%
    18:00 -5°C° 0.8 mm 3 m/S 733 mmHg 97%
    19:00 -5°C° 0.8 mm 3 m/S 733 mmHg 97%
    20:00 -5°C° 0.4 mm 3 m/S 733 mmHg 96%
    21:00 -5°C° 0.4 mm 3 m/S 733 mmHg 96%
    22:00 -5°C° 0.4 mm 3 m/S 733 mmHg 96%
    23:00 -5°C° 0.3 mm 4 m/S 733 mmHg 95%

    übermorgen, 27 Februar, Donnerstag

    Zeit Temperatur Niederschläge Wind Luftdruck Luftfeuchtigkeit
    00:00 -7°C° 0.3 mm 4 m/S 733 mmHg 95%
    01:00 -7°C° 0.3 mm 5 m/S 734 mmHg 94%
    02:00 -8°C° 0.1 mm 6 m/S 735 mmHg 94%
    03:00 -8°C° 0.1 mm 6 m/S 735 mmHg 93%
    04:00 -8°C° 0.1 mm 7 m/S 736 mmHg 93%
    05:00 -7°C° 0.1 mm 7 m/S 737 mmHg 91%
    06:00 -7°C° 0.1 mm 7 m/S 738 mmHg 89%
    07:00 -6°C° 0.1 mm 7 m/S 740 mmHg 87%
    08:00 -7°C° 0 mm 7 m/S 741 mmHg 85%
    09:00 -7°C° 0 mm 7 m/S 742 mmHg 83%
    10:00 -7°C° 0 mm 7 m/S 743 mmHg 81%
    11:00 -5°C° 0 mm 6 m/S 743 mmHg 79%
    12:00 -5°C° 0 mm 6 m/S 744 mmHg 78%
    13:00 -4°C° 0 mm 5 m/S 745 mmHg 77%
    14:00 -4°C° 0 mm 5 m/S 745 mmHg 78%
    15:00 -3°C° 0 mm 4 m/S 745 mmHg 79%
    16:00 -2°C° 0 mm 3 m/S 746 mmHg 80%
    17:00 -3°C° 0 mm 4 m/S 746 mmHg 82%
    18:00 -3°C° 0 mm 4 m/S 747 mmHg 84%
    19:00 -3°C° 0 mm 4 m/S 747 mmHg 86%
    20:00 -3°C° 0 mm 4 m/S 748 mmHg 87%
    21:00 -4°C° 0 mm 3 m/S 748 mmHg 89%
    22:00 -5°C° 0 mm 3 m/S 749 mmHg 90%
    23:00 -5°C° 0 mm 3 m/S 749 mmHg 90%

    28 Februar, Freitag

    Zeit Temperatur Niederschläge Wind Luftdruck Luftfeuchtigkeit
    00:00 -6°C° 0 mm 3 m/S 749 mmHg 91%
    01:00 -6°C° 0 mm 3 m/S 749 mmHg 91%
    02:00 -6°C° 0 mm 3 m/S 750 mmHg 92%
    03:00 -6°C° 0 mm 3 m/S 750 mmHg 92%
    04:00 -5°C° 0 mm 3 m/S 750 mmHg 92%
    05:00 -5°C° 0 mm 3 m/S 750 mmHg 93%
    06:00 -4°C° 0 mm 3 m/S 750 mmHg 93%
    07:00 -4°C° 0 mm 3 m/S 750 mmHg 93%
    08:00 -3°C° 0.2 mm 4 m/S 750 mmHg 95%
    09:00 -2°C° 0.2 mm 5 m/S 750 mmHg 97%
    10:00 -1°C° 0.2 mm 5 m/S 750 mmHg 99%
    11:00 -1°C° 0 mm 5 m/S 751 mmHg 99%
    12:00 -1°C° 0 mm 5 m/S 751 mmHg 99%
    13:00 -1°C° 0 mm 5 m/S 751 mmHg 99%
    14:00 -1°C° 0 mm 5 m/S 751 mmHg 97%
    15:00 -1°C° 0 mm 4 m/S 751 mmHg 95%
    16:00 -1°C° 0 mm 4 m/S 752 mmHg 93%
    17:00 -1°C° 0 mm 4 m/S 752 mmHg 92%
    18:00 -2°C° 0 mm 4 m/S 752 mmHg 92%
    19:00 -1°C° 0 mm 3 m/S 752 mmHg 92%
    20:00 -2°C° 0 mm 3 m/S 753 mmHg 91%
    21:00 -2°C° 0 mm 3 m/S 753 mmHg 91%
    22:00 -2°C° 0 mm 3 m/S 753 mmHg 91%
    23:00 -2°C° 0 mm 3 m/S 753 mmHg 91%

    29 Februar, Samstag

    Zeit Temperatur Niederschläge Wind Luftdruck Luftfeuchtigkeit
    00:00 -4°C° 0 mm 3 m/S 754 mmHg 91%
    01:00 -3°C° 0 mm 2 m/S 754 mmHg 91%
    02:00 -4°C° 0 mm 3 m/S 754 mmHg 90%
    03:00 -4°C° 0 mm 3 m/S 754 mmHg 90%
    04:00 -4°C° 0 mm 4 m/S 753 mmHg 90%
    05:00 -4°C° 0 mm 4 m/S 753 mmHg 88%
    06:00 -5°C° 0 mm 5 m/S 753 mmHg 86%
    07:00 -5°C° 0 mm 5 m/S 753 mmHg 84%
    08:00 -5°C° 0 mm 6 m/S 752 mmHg 81%
    09:00 -4°C° 0 mm 6 m/S 752 mmHg 79%
    10:00 -4°C° 0 mm 7 m/S 752 mmHg 76%
    11:00 -4°C° 0 mm 7 m/S 752 mmHg 76%
    12:00 -3°C° 0 mm 7 m/S 751 mmHg 75%
    13:00 -3°C° 0 mm 7 m/S 751 mmHg 75%
    14:00 -3°C° 0 mm 7 m/S 751 mmHg 76%
    15:00 -4°C° 0 mm 7 m/S 751 mmHg 77%
    16:00 -4°C° 0 mm 7 m/S 750 mmHg 77%
    17:00 -6°C° 0 mm 7 m/S 750 mmHg 79%
    18:00 -6°C° 0 mm 7 m/S 750 mmHg 81%
    19:00 -6°C° 0 mm 6 m/S 750 mmHg 83%
    20:00 -8°C° 0 mm 6 m/S 750 mmHg 85%
    21:00 -7°C° 0 mm 5 m/S 750 mmHg 86%
    22:00 -8°C° 0 mm 5 m/S 750 mmHg 88%
    23:00 -9°C° 0 mm 4 m/S 751 mmHg 89%

    1 März, Sonntag

    Zeit Temperatur Niederschläge Wind Luftdruck Luftfeuchtigkeit
    00:00 -9°C° 0 mm 4 m/S 751 mmHg 91%
    01:00 -10°C° 0 mm 4 m/S 751 mmHg 92%
    02:00 -9°C° 0 mm 3 m/S 752 mmHg 92%
    03:00 -10°C° 0 mm 3 m/S 752 mmHg 92%
    04:00 -10°C° 0 mm 3 m/S 752 mmHg 93%
    05:00 -10°C° 0 mm 3 m/S 752 mmHg 92%
    06:00 -9°C° 0 mm 2 m/S 753 mmHg 92%
    07:00 -9°C° 0 mm 2 m/S 753 mmHg 91%
    08:00 -7°C° 0 mm 2 m/S 753 mmHg 91%
    09:00 -6°C° 0 mm 2 m/S 753 mmHg 92%
    10:00 -4°C° 0 mm 2 m/S 754 mmHg 92%
    11:00 -3°C° 0 mm 2 m/S 754 mmHg 93%
    12:00 -2°C° 0 mm 2 m/S 754 mmHg 95%
    13:00 -1°C° 0 mm 2 m/S 754 mmHg 96%
    14:00 0°C° 0 mm 1 m/S 754 mmHg 96%
    15:00 0°C° 0 mm 1 m/S 754 mmHg 96%
    16:00 0°C° 0 mm 1 m/S 754 mmHg 95%
    17:00 -1°C° 0 mm 1 m/S 754 mmHg 95%
    18:00 -2°C° 0 mm 1 m/S 754 mmHg 95%
    19:00 -4°C° 0 mm 0 m/S 754 mmHg 94%
    20:00 -4°C° 0 mm 0 m/S 754 mmHg 95%
    21:00 -4°C° 0 mm 0 m/S 753 mmHg 95%
    22:00 -5°C° 0 mm 0 m/S 753 mmHg 95%
    23:00 -4°C° 0 mm 0 m/S 753 mmHg 96%
    Mehr zeigen